Temp
10 9 9 9 9 9 9 9 9 9 9 10 10 10 9 10 10 10 10 11 12 14 14 14 14 14 14 14 14 14 16 16 16 17 18 17 18 17 17 18 18 17 17 18 19
9 9 9 9 9 9 8 8 8 8 9 9 9 9 9 9 10 10 10 11 12 13 13 13 12 14 14 14 14 14 15 16 18 18 17 17 17 16 17 16 18 18 19 17 18
9 9 9 8 8 8 8 8 8 8 8 8 8 9 9 10 10 10 11 11 12 12 13 13 14 14 14 14 14 14 16 17 19 19 17 17 17 17 16 18 16 16 17 18 16
9 8 8 8 8 8 8 8 8 8 8 8 9 9 9 9 9 10 10 11 11 12 12 12 12 13 14 14 15 15 15 17 18 18 17 17 17 16 15 17 16 17 17 18 16
8 8 8 8 8 8 8 8 8 8 8 8 8 8 8 9 9 10 10 11 11 12 12 13 12 12 14 16 14 15 16 17 18 16 16 17 17 15 15 17 17 17 18 17 17
8 8 8 8 8 8 7 8 8 8 8 8 8 8 8 8 9 10 11 11 12 12 12 13 12 13 15 15 16 16 17 17 16 16 17 17 16 16 20 17 17 17 17 16 16
8 8 8 7 8 7 7 7 7 7 8 8 8 8 9 9 10 10 11 11 13 13 12 13 14 13 14 14 14 15 16 15 16 15 16 16 17 16 18 18 16 16 16 17 16
8 8 8 8 7 7 7 8 7 8 7 8 8 8 8 11 10 10 11 12 13 13 13 14 14 14 13 14 14 14 14 15 15 15 15 16 16 16 17 16 15 15 16 17 18
7 7 7 7 7 7 7 8 8 8 8 8 8 8 9 10 11 11 11 11 12 13 13 13 13 14 13 12 12 13 13 14 14 16 15 15 15 17 16 15 16 16 15 16 17
7 7 7 7 7 7 7 9 8 9 8 8 8 8 10 10 10 11 11 11 12 12 11 11 12 12 11 12 13 12 12 14 14 15 15 14 15 17 15 15 15 16 16 15 16
7 7 6 7 6 7 8 8 7 7 8 8 8 8 9 10 11 10 11 11 11 11 10 11 11 12 11 13 14 12 14 14 16 16 15 15 16 16 16 15 15 16 15 14 16
7 7 6 6 6 7 7 7 7 7 7 9 8 9 9 9 9 10 11 10 11 10 7 9 10 12 13 14 14 14 12 14 16 16 16 15 16 16 16 16 16 17 16 15 15
7 7 6 6 6 7 8 8 8 8 7 8 9 8 8 9 9 9 10 9 9 9 7 11 12 13 14 13 13 13 13 13 14 15 16 15 15 16 16 16 17 17 15 15 14
6 6 6 6 6 7 7 8 8 8 7 8 9 8 9 8 9 10 9 10 10 9 9 10 12 13 13 14 13 14 14 14 14 14 13 16 13 14 17 17 16 17 17 14 14
6 6 6 6 6 6 8 8 8 8 9 8 8 8 9 10 9 9 10 11 9 10 10 10 12 12 12 13 15 14 14 14 14 12 14 14 13 15 15 15 18 18 17 13 13
6 6 6 6 6 7 8 8 8 4 9 8 8 9 9 10 9 9 10 11 10 11 11 11 11 12 13 13 14 12 13 12 11 11 10 12 13 14 14 16 16 16 16 14 11
5 6 6 6 7 7 8 7 6 7 9 9 8 9 9 10 10 11 10 9 10 10 10 10 11 11 11 13 14 14 12 9 10 9 10 10 12 15 16 15 15 16 15 13 10
6 6 6 7 7 8 8 6 6 9 9 9 9 9 10 11 10 11 10 10 10 11 10 12 11 11 10 12 12 13 13 10 12 10 11 11 11 13 14 14 13 14 13 12 10
7 6 6 7 7 8 7 2 6 5 10 10 9 9 10 11 11 11 11 11 11 11 11 11 11 11 10 11 12 12 10 11 8 7 6 10 10 12 13 13 13 13 11 10 9
7 7 7 7 7 7 7 7 7 9 10 9 10 10 10 11 11 11 11 12 11 11 11 10 11 11 11 11 11 12 11 12 7 9 11 11 10 12 14 14 13 13 11 10 9
7 7 7 7 7 7 4 6 9 11 11 12 12 12 11 11 12 12 10 11 12 10 11 10 11 11 11 11 11 11 9 10 10 9 9 11 12 10 13 13 11 12 11 9 9
5 8 7 7 8 7 4 8 12 12 11 12 12 12 12 11 11 10 10 12 12 11 11 11 10 11 11 11 11 11 11 11 9 9 7 7 10 13 12 10 10 10 11 10 10
5 6 6 6 9 7 8 11 12 12 12 12 12 12 13 12 11 11 11 11 12 12 11 11 10 10 10 11 11 11 11 11 10 8 7 9 12 12 11 12 11 12 11 11 10
4 5 6 7 7 8 10 11 12 12 12 12 12 12 13 11 10 11 11 12 13 13 13 12 9 9 10 11 11 10 11 11 11 11 13 12 12 13 13 13 13 12 11 10 9
2 5 5 5 7 8 10 10 11 13 11 10 12 11 12 12 11 10 11 11 12 13 11 11 8 8 10 11 10 10 11 11 11 11 12 14 13 15 14 14 12 11 10 10 9
3 4 4 5 6 8 8 9 10 11 11 11 11 10 11 11 11 11 11 11 11 11 10 9 8 8 8 11 10 10 10 10 11 12 11 12 12 14 14 12 12 11 10 10 9
1 2 3 5 7 10 8 9 9 9 10 10 11 11 10 10 10 10 10 10 11 10 9 9 6 5 6 8 10 9 10 10 10 11 12 11 13 14 13 12 11 11 10 10 9
Height
802 798 792 788 784 780 776 774 772 770 769 770 771 770 772 772 773 774 775 777 780 780 781 784 788 790 794 793 799 805 811 812 811 807 808 807 811 809 805 806 801 801 802 797 794
802 799 795 790 785 781 778 776 773 771 771 770 770 771 771 771 772 773 775 776 778 780 782 782 787 790 794 797 801 803 806 807 799 801 805 808 813 814 812 811 806 804 803 805 797
802 799 795 790 787 783 779 777 775 773 772 771 770 770 770 772 774 771 772 774 777 780 781 781 785 788 792 793 796 799 796 798 796 797 803 808 812 813 816 814 813 814 809 809 805
802 799 796 792 789 785 781 778 776 774 773 772 770 769 770 772 777 771 771 773 775 778 781 781 786 790 791 794 791 799 798 797 798 798 802 807 810 815 817 812 810 807 807 807 806
801 798 795 792 789 786 782 779 777 776 775 772 771 771 772 774 773 771 770 771 771 775 778 780 785 789 788 786 792 796 793 791 799 803 807 811 815 819 814 808 807 804 805 804 804
802 797 795 792 789 786 784 781 779 777 776 774 773 773 774 775 771 771 770 768 770 773 777 779 782 785 785 785 788 787 788 793 801 803 807 810 813 816 799 803 806 805 806 805 805
800 797 794 792 790 787 784 782 779 778 777 776 775 774 774 773 771 768 767 765 765 770 774 778 778 785 784 790 789 790 795 801 801 802 810 810 814 812 800 805 810 809 808 805 803
800 797 794 791 788 786 784 782 779 778 778 776 776 775 773 769 769 769 767 762 763 769 772 776 779 783 788 787 791 797 800 801 800 804 813 811 812 807 804 810 811 811 808 805 801
798 796 792 790 786 783 782 781 779 778 777 777 776 776 773 768 768 766 765 763 764 769 774 776 781 784 788 793 800 799 808 804 807 802 807 810 815 799 804 812 810 811 809 806 801
796 793 790 787 785 783 780 779 779 778 778 778 777 780 772 772 768 767 767 765 764 770 777 778 783 788 794 790 789 798 806 799 801 801 803 808 807 801 807 810 810 810 807 805 802
794 791 789 786 784 782 780 779 782 782 779 780 780 777 774 772 770 769 768 767 767 771 782 781 784 781 789 786 787 795 797 803 796 794 803 808 807 806 807 813 812 805 805 804 800
792 790 787 784 783 781 780 780 780 783 781 777 778 776 775 773 772 771 771 771 770 777 789 794 788 786 784 784 789 792 802 803 794 792 800 806 807 806 804 800 801 798 799 800 799
790 788 785 782 781 778 778 780 780 780 782 778 777 776 777 775 774 773 773 778 779 787 798 781 778 781 782 787 794 798 801 803 803 800 801 805 810 805 800 797 795 793 791 792 796
788 784 782 780 780 777 778 778 781 780 785 781 777 777 777 775 778 775 775 777 777 791 789 785 780 781 785 788 792 799 796 797 803 806 820 803 822 805 792 792 796 790 786 789 792
785 782 779 777 778 778 777 777 779 780 773 782 779 778 776 776 778 778 776 772 782 782 789 789 779 784 788 788 784 795 795 798 803 813 811 811 820 794 790 791 776 773 778 783 784
780 777 776 776 777 776 776 777 779 801 773 779 780 778 778 775 777 778 777 776 781 779 784 783 786 785 786 787 786 796 799 806 813 820 837 817 815 795 790 778 777 777 775 777 783
775 772 773 775 774 776 777 777 791 790 772 777 778 778 775 775 773 773 779 786 781 785 784 787 788 790 789 790 790 792 804 839 840 848 837 826 816 784 778 779 778 772 770 773 779
773 771 773 775 775 777 777 783 793 770 766 772 775 777 775 771 774 773 779 784 782 775 788 779 793 792 796 791 797 796 798 827 819 834 825 823 814 789 777 777 776 771 770 773 778
772 773 775 776 777 778 781 807 788 789 766 768 778 775 778 770 772 776 777 776 775 775 779 784 791 795 797 795 792 798 814 810 839 851 859 821 805 783 775 773 770 770 774 776 779
773 774 776 777 778 780 783 782 779 767 764 770 766 769 770 767 773 773 777 769 773 777 778 789 790 797 796 795 796 795 802 809 840 845 829 816 818 800 777 771 772 771 775 778 780
773 775 777 777 779 779 799 784 768 761 759 759 760 760 766 768 765 768 780 773 771 781 780 785 786 799 795 799 800 801 814 814 816 830 832 821 800 788 779 776 778 773 773 777 779
774 776 778 779 778 778 791 772 758 757 758 756 756 755 762 768 771 778 777 771 770 775 779 781 794 796 795 796 798 799 801 805 824 829 843 842 807 774 777 780 779 775 772 773 776
778 779 779 780 775 781 771 759 759 758 759 757 757 757 755 762 770 768 769 771 771 773 777 782 796 800 805 801 800 797 800 803 810 823 831 830 792 775 776 774 773 772 773 773 774
780 784 781 778 776 772 766 763 759 759 759 758 758 757 756 765 770 772 772 770 770 770 771 776 795 798 799 795 793 801 795 799 802 802 792 788 784 776 773 770 769 772 773 773 777
780 782 782 787 775 773 767 765 759 757 762 764 760 764 761 764 768 774 774 774 773 773 780 782 803 801 792 788 796 796 794 793 794 791 790 771 774 767 768 766 767 769 771 773 774
783 784 784 781 776 772 775 772 768 766 765 768 768 769 764 771 773 774 774 776 777 781 788 790 802 802 803 788 791 794 793 791 783 781 786 776 769 764 762 767 766 766 766 767 769
783 784 785 783 776 768 780 777 776 774 771 771 769 767 773 776 776 775 775 776 774 780 789 792 810 821 819 804 796 801 779 781 781 776 774 780 753 759 759 760 761 761 761 760 762
Wind_Speed
22 23 22 21 21 19 16 11 10 9 8 5 8 8 9 8 9 13 10 9 22 4 7 15 9 5 7 3 3 1 2 5 6 7 3 3 3 6 4 3 3 6 4 5 25
21 22 22 21 20 19 16 13 11 9 6 5 5 6 7 8 9 8 7 9 14 14 3 11 6 8 4 5 5 7 9 9 3 3 5 6 5 6 6 9 4 8 15 11 22
21 20 20 19 19 17 15 13 12 10 8 6 6 6 5 4 1 5 14 16 11 12 10 13 14 5 6 3 4 3 15 9 3 4 7 3 3 4 5 4 4 8 15 8 7
18 19 19 18 17 16 14 13 11 9 8 6 4 1 8 6 4 4 2 14 13 13 11 8 6 5 6 7 7 8 11 10 5 3 4 2 2 4 3 6 7 9 14 6 7
15 16 17 17 15 15 13 11 11 10 9 7 3 3 6 2 3 8 9 10 12 15 16 7 6 4 6 7 9 5 13 13 9 7 3 7 3 3 10 5 5 11 15 7 6
19 14 14 15 14 14 11 10 9 9 9 6 6 3 2 2 3 12 15 14 15 17 17 9 8 7 4 4 9 7 7 12 12 9 5 3 1 2 15 6 12 14 14 7 6
17 18 14 13 13 12 12 10 7 7 7 5 3 1 1 4 3 6 14 11 15 24 11 14 7 6 3 3 4 3 10 8 8 8 3 4 8 9 15 8 10 11 12 8 7
18 17 16 15 13 12 12 12 7 4 6 5 4 4 3 4 3 9 9 2 17 24 20 16 7 5 3 3 5 4 4 5 5 10 4 9 11 8 11 10 11 11 11 8 7
17 18 16 16 13 11 11 11 5 2 3 3 3 2 3 1 2 11 9 3 17 15 16 13 5 3 2 8 3 3 5 5 5 11 8 6 4 10 3 8 11 9 9 8 8
18 18 17 13 13 11 11 6 4 2 1 3 3 2 5 4 5 6 4 8 6 11 5 6 3 4 3 7 14 7 5 4 7 12 7 13 4 3 9 5 14 9 8 8 8
19 19 17 15 13 10 9 2 3 3 2 1 2 2 3 11 3 6 5 4 3 5 2 11 2 14 7 5 1 8 5 5 2 9 6 11 8 7 8 7 11 16 8 8 9
20 20 17 16 13 9 4 2 2 1 2 1 4 3 2 5 2 4 4 3 2 6 5 2 7 6 6 7 6 6 7 5 1 6 6 9 12 6 9 8 11 19 9 8 4
21 20 17 16 10 6 2 2 2 3 1 2 1 1 2 4 2 3 3 4 9 4 5 3 7 9 6 5 7 3 7 4 6 4 2 6 6 14 8 5 8 12 9 5 8
21 19 18 12 4 2 2 6 2 2 2 3 2 1 1 2 3 3 3 1 4 5 6 3 3 8 7 5 5 4 4 5 7 6 5 2 4 9 14 11 11 18 17 11 8
23 21 15 6 1 2 3 7 1 1 0 2 1 4 3 3 4 4 1 2 6 7 2 1 4 10 7 7 4 3 5 6 3 4 3 1 2 4 5 11 23 21 14 9 10
24 20 9 4 7 3 8 5 0 5 2 3 1 1 2 1 2 4 2 4 1 5 4 3 0 3 4 4 5 7 6 6 4 3 1 6 5 5 6 9 3 8 11 10 10
24 15 5 6 3 10 8 2 3 4 3 5 3 3 2 1 2 2 3 2 2 3 2 3 2 2 2 6 3 3 6 3 3 2 4 4 3 10 2 5 5 7 7 7 8
17 4 7 3 8 10 3 3 6 3 2 5 5 4 1 3 4 2 4 3 1 2 3 2 3 2 4 3 6 3 4 4 4 3 3 1 6 5 6 5 7 7 5 3 7
3 5 5 3 10 6 1 4 5 5 1 4 6 4 1 2 3 4 3 1 4 2 3 3 3 1 4 2 2 3 3 4 6 3 3 4 7 8 5 8 6 6 4 6 8
5 2 3 7 7 1 2 2 1 3 4 5 3 3 4 7 6 6 6 2 3 3 1 3 5 2 2 2 4 3 7 2 3 2 3 4 5 6 9 7 8 6 7 5 5
2 2 1 8 5 1 1 4 3 5 3 2 1 4 4 6 5 5 9 1 4 4 3 3 3 2 2 3 6 2 1 3 4 4 4 2 5 6 5 5 8 9 7 8 8
2 1 4 8 2 1 2 3 2 3 1 1 1 3 4 6 4 5 7 1 6 7 5 2 4 3 1 2 3 2 3 4 4 3 1 2 7 2 5 8 6 8 6 7 7
2 1 2 3 1 2 4 1 0 4 4 4 4 4 3 3 4 1 2 2 7 4 6 6 3 4 2 2 2 3 4 3 3 3 7 4 6 1 4 5 6 4 6 6 7
2 1 1 1 1 2 1 2 2 1 2 3 2 3 3 5 6 3 2 2 1 3 9 4 3 5 6 4 3 5 8 10 4 5 6 15 10 11 8 6 3 5 6 7 7
2 1 1 1 2 3 1 1 1 2 3 7 4 4 1 3 3 3 3 4 6 4 4 2 3 3 4 4 5 3 5 12 14 16 12 13 18 16 12 11 8 8 6 7 8
2 2 2 1 2 1 4 5 4 4 5 4 4 5 3 4 2 4 4 2 4 2 3 2 1 2 4 3 2 4 7 9 19 21 15 23 24 8 4 5 5 9 9 9 8
2 1 1 4 3 1 2 3 4 4 4 4 3 3 6 3 2 2 3 1 3 7 3 3 4 3 3 3 3 7 13 12 5 7 15 14 26 3 5 9 8 9 10 12 10
Wind_Direction
356 1 6 3 1 357 353 349 344 342 314 287 262 281 283 284 258 219 225 219 214 233 198 191 179 137 127 102 168 300 173 211 196 146 158 63 54 330 284 293 329 2 317 299 153
358 358 357 -0 1 5 3 359 4 5 351 344 331 293 277 281 227 244 219 237 228 228 240 178 145 155 165 166 176 173 205 229 173 114 99 94 73 330 8 340 46 23 10 360 155
355 356 358 1 4 2 358 356 360 8 6 353 330 294 259 199 62 249 256 238 235 234 239 197 172 153 198 148 176 183 217 201 191 183 115 93 74 353 358 2 99 343 317 307 264
354 355 355 359 2 3 10 10 8 15 15 357 347 39 161 170 192 94 146 230 243 238 230 160 131 177 176 182 163 163 235 221 244 76 92 128 65 356 317 230 331 307 307 240 250
353 352 353 357 358 359 2 4 15 16 15 16 17 129 123 113 266 306 325 311 259 224 204 167 140 174 195 178 171 195 181 187 209 131 75 130 197 254 271 287 324 338 340 242 219
339 350 346 348 354 358 356 360 11 14 14 35 60 124 86 238 296 293 298 311 216 200 199 174 171 194 204 173 187 180 172 149 160 146 150 134 63 32 256 48 340 331 328 314 240
338 334 345 339 343 349 355 346 354 3 358 2 347 95 181 246 231 304 313 296 204 194 172 177 160 187 127 131 161 174 156 150 156 135 134 109 285 229 274 302 315 317 307 303 244
339 334 326 337 334 335 338 335 329 349 345 343 338 343 256 316 313 278 318 193 174 193 188 175 178 121 168 111 95 142 142 167 162 161 115 115 243 244 246 272 291 306 304 309 290
340 332 331 324 333 328 329 325 336 330 337 345 353 13 331 354 22 332 13 187 149 173 189 177 123 149 77 132 86 207 162 155 161 187 147 137 249 251 155 236 274 282 288 292 302
337 332 328 324 321 329 329 304 334 14 26 303 298 358 348 323 317 337 28 29 155 121 94 160 169 151 137 170 193 160 108 182 158 191 168 188 216 151 174 184 254 281 280 273 269
334 332 330 322 321 318 330 296 14 351 11 146 281 279 315 328 41 18 11 47 108 129 89 131 239 195 156 118 173 121 111 150 99 172 155 206 187 218 167 174 251 267 266 264 257
331 331 327 322 319 310 309 121 156 150 325 210 252 262 271 320 36 5 26 53 195 124 43 142 220 165 146 98 121 112 125 169 90 149 152 183 217 221 217 192 213 254 245 250 243
328 330 326 322 314 284 195 180 137 130 26 321 246 354 296 349 61 8 60 112 118 83 164 189 162 146 135 110 115 43 138 156 156 98 15 134 237 218 224 218 212 249 261 234 230
327 328 324 320 288 185 217 170 152 147 74 170 176 77 316 334 56 60 42 78 99 117 131 3 308 134 140 124 123 116 170 130 143 131 189 181 257 233 226 230 209 224 243 229 217
327 325 320 274 304 209 174 162 165 123 4 113 38 321 275 72 154 18 14 328 98 138 159 174 187 145 155 172 117 143 148 119 98 93 110 275 255 257 158 228 232 234 234 216 205
328 324 308 202 221 215 153 142 156 45 13 106 54 199 75 359 108 142 152 36 57 105 90 73 97 77 161 160 108 166 90 60 71 92 342 232 167 250 199 233 244 224 224 221 200
335 325 215 185 202 164 157 102 35 77 191 136 119 189 226 102 90 104 75 86 153 122 76 46 51 79 50 100 56 74 80 37 28 12 223 314 209 248 263 243 235 246 245 236 196
341 71 152 147 145 154 159 60 71 241 3 95 122 131 151 163 66 79 150 141 173 109 109 119 123 45 359 115 158 166 130 146 167 195 242 326 232 250 222 275 257 258 262 202 194
19 97 146 162 159 170 46 52 195 199 183 105 134 158 182 260 126 150 237 189 169 202 117 108 63 57 38 359 93 214 151 163 106 25 46 243 298 295 278 267 277 290 247 213 179
136 129 49 162 162 133 58 265 229 220 141 137 226 189 143 168 145 175 200 209 142 147 162 168 113 29 98 53 21 129 157 79 9 126 270 274 273 232 303 313 322 282 253 204 164
112 89 37 162 158 117 175 245 273 234 178 175 162 149 119 154 177 164 189 168 162 132 107 132 76 43 133 169 171 102 124 71 123 137 183 295 265 211 233 291 299 286 212 180 171
86 107 172 159 224 39 225 209 326 344 118 305 27 76 144 170 144 184 188 180 178 158 128 151 110 122 44 12 46 78 172 160 137 228 205 150 265 260 269 286 283 273 217 168 169
82 107 178 195 294 283 288 259 0 31 4 24 30 26 52 100 102 80 107 319 154 141 151 175 130 116 26 324 7 222 181 205 109 86 198 173 260 237 273 323 295 250 213 184 172
87 95 343 245 292 244 344 359 101 54 59 8 30 48 60 47 25 121 94 74 74 79 80 82 130 160 182 193 133 190 204 201 168 223 239 236 278 271 280 314 341 256 219 179 174
47 229 205 205 283 331 282 332 348 89 15 19 33 42 25 99 57 88 65 57 31 79 61 118 156 151 235 200 158 220 227 205 211 230 227 257 242 252 247 258 243 225 199 180 187
110 103 347 239 256 231 357 8 47 351 28 8 54 11 44 84 52 186 127 148 179 136 145 1 228 72 336 343 233 269 246 226 227 237 251 254 270 249 256 248 245 228 203 205 206
58 102 124 322 332 87 44 37 12 319 39 56 298 92 50 23 308 299 274 221 174 145 137 129 130 83 271 356 352 293 238 217 212 230 229 245 250 290 269 234 243 238 213 206 206